{"data":{"norad_id":56897,"intl_designator":"2023-083X","name":"STARLINK-6200","alt_names":[],"object_type":"PAYLOAD","status":"ACTIVE","operator":null,"country":"US","launch_date":"2023-06-12","launch_site_code":"AFETR","launch_vehicle":null,"mission":null,"orbit_class":"UNKNOWN","rcs_meters":null,"size_class":null,"mass_kg":null,"dimensions":null,"purposes":["comms"],"wikipedia_slug":null,"has_3d_model":false,"image_url":null,"decayed_at":null,"tle_current":{"epoch":"2026-05-25T00:54:27.388800Z","epoch_age_seconds":65626,"freshness":"FRESH","line1":"1 56897U 23083X   26145.03781700  .00001477  00000+0  63172-4 0  9996","line2":"2 56897  43.0057  17.7066 0001551 275.4509  84.6165 15.27582619163373","mean_motion":15.27582619,"eccentricity":0.0001551,"inclination_deg":43.0057,"raan_deg":17.7066,"arg_perigee_deg":275.4509,"mean_anomaly_deg":84.6165,"bstar":6.3172e-5,"rev_number":16337,"period_min":94.266587095804,"perigee_km":481.97708507551,"apogee_km":484.10542256985,"semimajor_km":6861.1782538227,"source":"CELESTRAK","updated_at":"2026-05-25T13:38:18.171465Z"}}}